| time (UTC) | temp C | wind direction | speed KPH | gust KPH | rain 1hr cm | rain 24hr cm | rain mn cm | humidity % | barometer mb |
| 20260906181512 | 23 | 56 | 4.8 | 9.7 | 0.00 | 0.00 | 0.00 | 64 | 1018.4 |
| 20260906181003 | 23 | 28 | 1.6 | 14.5 | 0.00 | 0.00 | 0.00 | 65 | 1018.4 |
| 20260906180503 | 23 | 33 | 1.6 | 19.3 | 0.00 | 0.00 | 0.00 | 65 | 1018.5 |
| 20260906180008 | 23 | 40 | 9.7 | 19.3 | 0.00 | 0.00 | 0.00 | 65 | 1018.5 |
| 20260906175503 | 23 | 63 | 6.4 | 16.1 | 0.00 | 0.00 | 0.00 | 64 | 1018.5 |
| 20260906175002 | 23 | 80 | 6.4 | 16.1 | 0.00 | 0.00 | 0.00 | 65 | 1018.5 |
| 20260906174506 | 23 | 69 | 8.0 | 16.1 | 0.00 | 0.00 | 0.00 | 66 | 1018.5 |
| 20260906174004 | 23 | 67 | 6.4 | 16.1 | 0.00 | 0.00 | 0.00 | 69 | 1018.6 |
| 20260906173503 | 22 | 65 | 3.2 | 16.1 | 0.00 | 0.00 | 0.00 | 68 | 1018.7 |
| 20260906173009 | 22 | 28 | 3.2 | 16.1 | 0.00 | 0.00 | 0.00 | 70 | 1018.7 |
| 20260906172503 | 22 | 68 | 4.8 | 16.1 | 0.00 | 0.00 | 0.00 | 70 | 1018.8 |
| 20260906172002 | 22 | 71 | 6.4 | 19.3 | 0.00 | 0.00 | 0.00 | 70 | 1018.9 |
| 20260906171515 | 23 | 69 | 11.3 | 19.3 | 0.00 | 0.00 | 0.00 | 69 | 1018.9 |
| 20260906171003 | 23 | 75 | 4.8 | 14.5 | 0.00 | 0.00 | 0.00 | 70 | 1018.8 |
| 20260906170503 | 23 | 66 | 4.8 | 16.1 | 0.00 | 0.00 | 0.00 | 71 | 1018.8 |
| 20260906170008 | 23 | 59 | 8.0 | 16.1 | 0.00 | 0.00 | 0.00 | 70 | 1018.8 |
| 20260906165502 | 23 | 61 | 3.2 | 12.9 | 0.00 | 0.00 | 0.00 | 75 | 1018.8 |
| 20260906165003 | 22 | 63 | 6.4 | 11.3 | 0.00 | 0.00 | 0.00 | 73 | 1018.8 |
| 20260906164503 | 22 | 11 | 1.6 | 11.3 | 0.00 | 0.00 | 0.00 | 71 | 1018.9 |
| 20260906164004 | 22 | 42 | 3.2 | 6.4 | 0.00 | 0.00 | 0.00 | 73 | 1018.9 |
| 20260906163507 | 22 | 29 | 1.6 | 6.4 | 0.00 | 0.00 | 0.00 | 75 | 1019.0 |
| 20260906163011 | 22 | 5 | 1.6 | 14.5 | 0.00 | 0.00 | 0.00 | 76 | 1019.0 |
| 20260906162502 | 22 | 71 | 3.2 | 14.5 | 0.00 | 0.00 | 0.00 | 76 | 1019.1 |
| 20260906162004 | 22 | 61 | 1.6 | 12.9 | 0.00 | 0.00 | 0.00 | 76 | 1018.9 |
| 20260906161507 | 22 | 65 | 6.4 | 12.9 | 0.00 | 0.00 | 0.00 | 76 | 1018.9 |
| 20260906161007 | 22 | 59 | 1.6 | 6.4 | 0.00 | 0.00 | 0.00 | 76 | 1018.9 |
| 20260906160503 | 22 | 34 | 3.2 | 6.4 | 0.00 | 0.00 | 0.00 | 76 | 1019.0 |
| 20260906160005 | 22 | 13 | 1.6 | 14.5 | 0.00 | 0.00 | 0.00 | 78 | 1019.0 |
| 20260906155504 | 21 | 62 | 3.2 | 14.5 | 0.00 | 0.00 | 0.00 | 77 | 1019.0 |
| 20260906155003 | 21 | 55 | 3.2 | 8.0 | 0.00 | 0.00 | 0.00 | 77 | 1019.1 |
| 20260906154508 | 21 | 44 | 1.6 | 6.4 | 0.00 | 0.00 | 0.00 | 79 | 1019.1 |
| 20260906154005 | 21 | 18 | 1.6 | 6.4 | 0.00 | 0.00 | 0.00 | 78 | 1019.1 |
| 20260906153503 | 21 | 30 | 1.6 | 8.0 | 0.00 | 0.00 | 0.00 | 78 | 1019.1 |
| 20260906153006 | 21 | 46 | 3.2 | 8.0 | 0.00 | 0.00 | 0.00 | 79 | 1019.1 |
| 20260906152503 | 21 | 30 | 1.6 | 9.7 | 0.00 | 0.00 | 0.00 | 79 | 1019.0 |
| 20260906152004 | 21 | 67 | 4.8 | 9.7 | 0.00 | 0.00 | 0.00 | 79 | 1019.0 |
| 20260906151521 | 21 | 66 | 1.6 | 4.8 | 0.00 | 0.00 | 0.00 | 79 | 1019.1 |
| 20260906151005 | 21 | 27 | 1.6 | 4.8 | 0.00 | 0.00 | 0.00 | 78 | 1019.1 |
| 20260906150504 | 21 | 44 | 1.6 | 9.7 | 0.00 | 0.00 | 0.00 | 78 | 1019.1 |
| 20260906150008 | 21 | 57 | 1.6 | 9.7 | 0.00 | 0.00 | 0.00 | 80 | 1019.1 |
| 20260906145503 | 21 | 34 | 3.2 | 9.7 | 0.00 | 0.00 | 0.00 | 80 | 1019.0 |
| 20260906145004 | 20 | 69 | 4.8 | 8.0 | 0.00 | 0.03 | 0.00 | 81 | 1019.0 |
| 20260906144508 | 20 | 33 | 1.6 | 6.4 | 0.00 | 0.03 | 0.00 | 79 | 1018.9 |
| 20260906144004 | 20 | 46 | 1.6 | 6.4 | 0.00 | 0.03 | 0.00 | 79 | 1019.0 |
| 20260906143504 | 20 | 36 | 1.6 | 6.4 | 0.00 | 0.03 | 0.00 | 81 | 1018.9 |
| 20260906143010 | 20 | 80 | 1.6 | 6.4 | 0.00 | 0.03 | 0.00 | 79 | 1018.8 |
| 20260906142507 | 20 | 33 | 3.2 | 6.4 | 0.00 | 0.05 | 0.00 | 80 | 1018.7 |
| 20260906142005 | 20 | 50 | 1.6 | 6.4 | 0.00 | 0.05 | 0.00 | 78 | 1018.6 |
| 20260906141511 | 20 | 49 | 1.6 | 6.4 | 0.00 | 0.05 | 0.00 | 78 | 1018.6 |
| 20260906141007 | 20 | 47 | 1.6 | 11.3 | 0.00 | 0.05 | 0.00 | 79 | 1018.7 |
| 20260906140502 | 20 | 34 | 4.8 | 11.3 | 0.00 | 0.08 | 0.00 | 78 | 1018.6 |
| 20260906140013 | 20 | 51 | 3.2 | 9.7 | 0.00 | 0.08 | 0.00 | 78 | 1018.6 |
| 20260906135507 | 20 | 54 | 1.6 | 11.3 | 0.00 | 0.08 | 0.00 | 80 | 1018.6 |
| 20260906135003 | 20 | 46 | 3.2 | 11.3 | 0.00 | 0.08 | 0.00 | 80 | 1018.6 |
| 20260906134510 | 19 | 50 | 3.2 | 9.7 | 0.00 | 0.08 | 0.00 | 79 | 1018.6 |
| 20260906134005 | 19 | 42 | 1.6 | 9.7 | 0.00 | 0.08 | 0.00 | 80 | 1018.6 |
| 20260906133503 | 19 | 64 | 4.8 | 9.7 | 0.00 | 0.08 | 0.00 | 80 | 1018.5 |
| 20260906133010 | 19 | 56 | 3.2 | 9.7 | 0.00 | 0.08 | 0.00 | 82 | 1018.6 |
| 20260906132506 | 18 | 37 | 1.6 | 6.4 | 0.00 | 0.08 | 0.00 | 81 | 1018.7 |
| 20260906132005 | 18 | 29 | 1.6 | 3.2 | 0.00 | 0.08 | 0.00 | 81 | 1018.7 |
| 20260906131509 | 18 | 67 | 1.6 | 8.0 | 0.00 | 0.08 | 0.00 | 82 | 1018.5 |
| 20260906131003 | 18 | 62 | 4.8 | 8.0 | 0.00 | 0.08 | 0.00 | 83 | 1018.5 |
| 20260906130504 | 17 | 74 | 1.6 | 3.2 | 0.00 | 0.08 | 0.00 | 85 | 1018.5 |
| 20260906130018 | 17 | 48 | 1.6 | 3.2 | 0.00 | 0.08 | 0.00 | 85 | 1018.6 |
| 20260906125503 | 17 | 40 | 0.0 | 3.2 | 0.00 | 0.08 | 0.00 | 87 | 1018.5 |
| 20260906125004 | 17 | 34 | 1.6 | 3.2 | 0.00 | 0.08 | 0.00 | 86 | 1018.4 |
| 20260906124511 | 17 | 44 | 1.6 | 3.2 | 0.00 | 0.08 | 0.00 | 87 | 1018.3 |
| 20260906124005 | 16 | 40 | 1.6 | 3.2 | 0.00 | 0.08 | 0.00 | 87 | 1018.1 |
| 20260906123504 | 16 | 44 | 1.6 | 3.2 | 0.00 | 0.08 | 0.00 | 87 | 1017.9 |
| 20260906123017 | 16 | 46 | 1.6 | 3.2 | 0.00 | 0.08 | 0.00 | 88 | 1017.9 |
| 20260906122505 | 16 | 69 | 1.6 | 4.8 | 0.00 | 0.08 | 0.00 | 88 | 1017.9 |
| 20260906122005 | 16 | 61 | 1.6 | 4.8 | 0.00 | 0.08 | 0.00 | 88 | 1018.0 |
| 20260906121525 | 16 | 61 | 1.6 | 3.2 | 0.00 | 0.10 | 0.00 | 89 | 1018.0 |
| 20260906121007 | 16 | 53 | 1.6 | 3.2 | 0.00 | 0.15 | 0.00 | 89 | 1017.9 |
| 20260906120507 | 16 | 76 | 1.6 | 3.2 | 0.00 | 0.15 | 0.00 | 90 | 1017.8 |
| 20260906120012 | 16 | 62 | 1.6 | 3.2 | 0.00 | 0.15 | 0.00 | 90 | 1017.8 |
| 20260906115505 | 16 | 65 | 0.0 | 3.2 | 0.00 | 0.15 | 0.00 | 90 | 1017.7 |
| 20260906115007 | 16 | 65 | 1.6 | 6.4 | 0.00 | 0.15 | 0.00 | 89 | 1017.6 |
| 20260906114509 | 16 | 67 | 3.2 | 6.4 | 0.00 | 0.15 | 0.00 | 89 | 1017.4 |
| 20260906114003 | 16 | 70 | 3.2 | 6.4 | 0.00 | 0.15 | 0.00 | 89 | 1017.4 |
| 20260906113504 | 16 | 65 | 3.2 | 4.8 | 0.00 | 0.15 | 0.00 | 89 | 1017.4 |
| 20260906113035 | 16 | 65 | 1.6 | 4.8 | 0.00 | 0.15 | 0.00 | 89 | 1017.3 |
| 20260906112506 | 16 | 67 | 1.6 | 4.8 | 0.00 | 0.15 | 0.00 | 89 | 1017.3 |
| 20260906112002 | 16 | 65 | 1.6 | 4.8 | 0.00 | 0.15 | 0.00 | 89 | 1017.3 |
| 20260906111503 | 16 | 65 | 1.6 | 4.8 | 0.00 | 0.15 | 0.00 | 89 | 1017.2 |
| 20260906111002 | 16 | 62 | 1.6 | 8.0 | 0.00 | 0.15 | 0.00 | 89 | 1017.1 |
| 20260906110503 | 16 | 60 | 3.2 | 8.0 | 0.00 | 0.18 | 0.00 | 89 | 1017.1 |
| 20260906110004 | 16 | 64 | 3.2 | 6.4 | 0.00 | 0.18 | 0.00 | 89 | 1017.1 |
| 20260906105503 | 16 | 61 | 3.2 | 6.4 | 0.00 | 0.18 | 0.00 | 89 | 1017.1 |
| 20260906105003 | 16 | 61 | 3.2 | 4.8 | 0.00 | 0.18 | 0.00 | 89 | 1017.1 |
| 20260906104509 | 16 | 66 | 1.6 | 3.2 | 0.00 | 0.18 | 0.00 | 89 | 1017.1 |
| 20260906104004 | 16 | 65 | 1.6 | 3.2 | 0.00 | 0.18 | 0.00 | 89 | 1017.0 |
| 20260906103503 | 16 | 67 | 1.6 | 4.8 | 0.00 | 0.25 | 0.00 | 88 | 1017.0 |
| 20260906103012 | 16 | 64 | 1.6 | 4.8 | 0.00 | 0.64 | 0.00 | 88 | 1017.0 |
| 20260906102508 | 16 | 67 | 3.2 | 4.8 | 0.00 | 0.89 | 0.00 | 88 | 1017.0 |
| 20260906102008 | 17 | 69 | 1.6 | 3.2 | 0.00 | 0.91 | 0.00 | 88 | 1017.0 |
| 20260906101516 | 17 | 64 | 1.6 | 3.2 | 0.00 | 0.99 | 0.00 | 88 | 1016.9 |
| 20260906101002 | 17 | 62 | 1.6 | 6.4 | 0.00 | 1.14 | 0.00 | 88 | 1017.0 |
| 20260906100502 | 17 | 63 | 1.6 | 6.4 | 0.00 | 1.32 | 0.00 | 88 | 1016.8 |
| 20260906100008 | 17 | 72 | 3.2 | 6.4 | 0.00 | 1.45 | 0.00 | 88 | 1016.7 |
| 20260906095503 | 17 | 67 | 3.2 | 6.4 | 0.00 | 1.52 | 0.00 | 88 | 1016.7 |
| 20260906095002 | 17 | 63 | 3.2 | 6.4 | 0.00 | 1.57 | 0.00 | 88 | 1016.7 |
| 20260906094504 | 17 | 63 | 3.2 | 6.4 | 0.00 | 1.63 | 0.00 | 88 | 1016.6 |
| 20260906094003 | 17 | 67 | 3.2 | 6.4 | 0.00 | 1.70 | 0.00 | 88 | 1016.6 |
| 20260906093503 | 17 | 51 | 3.2 | 6.4 | 0.00 | 1.80 | 0.00 | 88 | 1016.6 |
| 20260906093009 | 17 | 75 | 3.2 | 6.4 | 0.00 | 1.80 | 0.00 | 87 | 1016.7 |
| 20260906092504 | 17 | 68 | 1.6 | 6.4 | 0.00 | 1.83 | 0.00 | 87 | 1016.6 |
| 20260906092011 | 17 | 64 | 3.2 | 6.4 | 0.00 | 1.85 | 0.00 | 87 | 1016.5 |
| 20260906091524 | 17 | 66 | 1.6 | 3.2 | 0.00 | 1.91 | 0.00 | 87 | 1016.5 |
| 20260906091007 | 17 | 61 | 1.6 | 3.2 | 0.00 | 1.93 | 0.00 | 88 | 1016.5 |
| 20260906090509 | 17 | 53 | 1.6 | 4.8 | 0.00 | 2.03 | 0.00 | 87 | 1016.6 |
| 20260906090005 | 17 | 61 | 1.6 | 4.8 | 0.00 | 2.13 | 0.00 | 87 | 1016.5 |
| 20260906085503 | 17 | 61 | 1.6 | 3.2 | 0.00 | 2.13 | 0.00 | 87 | 1016.5 |
| 20260906085003 | 18 | 61 | 1.6 | 6.4 | 0.00 | 2.13 | 0.00 | 87 | 1016.5 |
| 20260906084504 | 18 | 52 | 1.6 | 8.0 | 0.00 | 2.13 | 0.00 | 86 | 1016.5 |
| 20260906084004 | 18 | 57 | 3.2 | 8.0 | 0.00 | 2.13 | 0.00 | 85 | 1016.4 |
| 20260906083502 | 18 | 63 | 3.2 | 12.9 | 0.00 | 2.13 | 0.00 | 85 | 1016.3 |
| 20260906083013 | 18 | 53 | 3.2 | 12.9 | 0.00 | 2.13 | 0.00 | 85 | 1016.3 |
| 20260906082503 | 18 | 68 | 4.8 | 11.3 | 0.00 | 2.13 | 0.00 | 85 | 1016.4 |
| 20260906082003 | 18 | 53 | 4.8 | 11.3 | 0.00 | 2.13 | 0.00 | 85 | 1016.3 |
| 20260906081515 | 18 | 61 | 3.2 | 12.9 | 0.00 | 2.13 | 0.00 | 85 | 1016.3 |
| 20260906081007 | 18 | 62 | 4.8 | 12.9 | 0.00 | 2.13 | 0.00 | 84 | 1016.4 |
| 20260906080508 | 18 | 57 | 6.4 | 12.9 | 0.00 | 2.13 | 0.00 | 83 | 1016.3 |
| 20260906080016 | 18 | 57 | 6.4 | 12.9 | 0.00 | 2.13 | 0.00 | 83 | 1016.3 |
| 20260906075510 | 18 | 67 | 6.4 | 12.9 | 0.00 | 2.13 | 0.00 | 83 | 1016.4 |
| 20260906075009 | 18 | 69 | 4.8 | 12.9 | 0.00 | 2.13 | 0.00 | 82 | 1016.4 |
| 20260906074503 | 18 | 65 | 3.2 | 12.9 | 0.00 | 2.13 | 0.00 | 82 | 1016.4 |
| 20260906074003 | 19 | 65 | 4.8 | 8.0 | 0.00 | 2.13 | 0.00 | 81 | 1016.5 |
| 20260906073502 | 19 | 78 | 3.2 | 8.0 | 0.00 | 2.13 | 0.00 | 81 | 1016.5 |
| 20260906073005 | 19 | 49 | 4.8 | 14.5 | 0.00 | 2.13 | 0.00 | 81 | 1016.4 |
| 20260906072503 | 19 | 50 | 6.4 | 12.9 | 0.00 | 2.13 | 0.00 | 81 | 1016.4 |
| 20260906072003 | 19 | 59 | 3.2 | 11.3 | 0.00 | 2.13 | 0.00 | 81 | 1016.4 |
| 20260906071508 | 19 | 81 | 4.8 | 11.3 | 0.00 | 2.13 | 0.00 | 81 | 1016.4 |
| 20260906071007 | 19 | 60 | 4.8 | 11.3 | 0.00 | 2.13 | 0.00 | 80 | 1016.3 |
| 20260906070508 | 19 | 67 | 4.8 | 9.7 | 0.00 | 2.13 | 0.00 | 80 | 1016.3 |
| 20260906070015 | 19 | 69 | 6.4 | 9.7 | 0.00 | 2.13 | 0.00 | 80 | 1016.3 |
| 20260906065508 | 19 | 66 | 4.8 | 9.7 | 0.00 | 2.13 | 0.00 | 80 | 1016.3 |
| 20260906065013 | 19 | 62 | 3.2 | 6.4 | 0.00 | 2.13 | 0.00 | 81 | 1016.3 |
| 20260906064520 | 19 | 60 | 3.2 | 6.4 | 0.00 | 2.13 | 0.00 | 81 | 1016.3 |
| 20260906064012 | 20 | 70 | 3.2 | 8.0 | 0.00 | 2.13 | 0.00 | 80 | 1016.3 |
| 20260906063504 | 20 | 65 | 3.2 | 8.0 | 0.00 | 2.13 | 0.00 | 81 | 1016.3 |
| 20260906063005 | 20 | 71 | 3.2 | 9.7 | 0.00 | 2.13 | 0.00 | 81 | 1016.3 |
| 20260906062502 | 20 | 65 | 4.8 | 9.7 | 0.00 | 2.13 | 0.00 | 81 | 1016.3 |
| 20260906062003 | 20 | 61 | 3.2 | 8.0 | 0.00 | 2.13 | 0.00 | 82 | 1016.2 |
| 20260906061509 | 20 | 67 | 4.8 | 8.0 | 0.00 | 2.13 | 0.00 | 81 | 1016.3 |
| 20260906061003 | 20 | 72 | 3.2 | 6.4 | 0.00 | 2.13 | 0.00 | 83 | 1016.3 |
| 20260906060507 | 19 | 59 | 1.6 | 4.8 | 0.00 | 2.13 | 0.00 | 83 | 1016.3 |
| 20260906060024 | 19 | 58 | 1.6 | 4.8 | 0.00 | 2.13 | 0.00 | 83 | 1016.2 |
| 20260906055507 | 19 | 68 | 1.6 | 4.8 | 0.00 | 2.13 | 0.00 | 84 | 1016.2 |
| 20260906055007 | 19 | 64 | 1.6 | 3.2 | 0.00 | 2.13 | 0.00 | 84 | 1016.1 |
| 20260906054526 | 19 | 65 | 1.6 | 4.8 | 0.00 | 2.13 | 0.00 | 83 | 1016.0 |
| 20260906054012 | 19 | 60 | 3.2 | 4.8 | 0.00 | 2.13 | 0.00 | 83 | 1016.0 |
| 20260906053510 | 19 | 61 | 1.6 | 4.8 | 0.00 | 2.13 | 0.00 | 83 | 1015.9 |
| 20260906053028 | 19 | 69 | 1.6 | 4.8 | 0.00 | 2.13 | 0.00 | 83 | 1015.9 |
| 20260906052503 | 19 | 38 | 3.2 | 4.8 | 0.00 | 2.13 | 0.00 | 83 | 1015.9 |
| 20260906052003 | 19 | 47 | 1.6 | 3.2 | 0.00 | 2.13 | 0.00 | 85 | 1015.9 |
| 20260906051506 | 19 | 66 | 1.6 | 3.2 | 0.00 | 2.13 | 0.00 | 85 | 1015.9 |
| 20260906051007 | 19 | 64 | 1.6 | 1.6 | 0.00 | 2.13 | 0.00 | 86 | 1015.9 |
| 20260906050503 | 19 | 63 | 1.6 | 3.2 | 0.00 | 2.13 | 0.00 | 86 | 1015.9 |
| 20260906050028 | 19 | 67 | 0.0 | 3.2 | 0.00 | 2.13 | 0.00 | 87 | 1015.9 |
| 20260906045506 | 19 | 66 | 1.6 | 3.2 | 0.00 | 2.13 | 0.00 | 87 | 1015.8 |
| 20260906045007 | 19 | 62 | 1.6 | 3.2 | 0.00 | 2.13 | 0.00 | 87 | 1015.8 |
| 20260906044528 | 19 | 65 | 1.6 | 3.2 | 0.00 | 2.13 | 0.00 | 87 | 1015.7 |
| 20260906044013 | 19 | 65 | 0.0 | 3.2 | 0.00 | 2.13 | 0.00 | 87 | 1015.8 |
| 20260906043512 | 19 | 65 | 0.0 | 3.2 | 0.00 | 2.13 | 0.00 | 86 | 1015.8 |
| 20260906043023 | 19 | 67 | 0.0 | 1.6 | 0.00 | 2.13 | 0.00 | 86 | 1015.6 |
| 20260906042511 | 19 | 67 | 0.0 | 1.6 | 0.00 | 2.13 | 0.00 | 86 | 1015.4 |
| 20260906042013 | 19 | 67 | 0.0 | 1.6 | 0.00 | 2.13 | 0.00 | 86 | 1015.4 |
| 20260906041508 | 19 | 67 | 0.0 | 1.6 | 0.00 | 2.13 | 0.00 | 86 | 1015.5 |
| 20260906041004 | 19 | 67 | 0.0 | 1.6 | 0.00 | 2.13 | 0.00 | 86 | 1015.4 |
| 20260906040503 | 19 | 67 | 0.0 | 3.2 | 0.00 | 2.13 | 0.00 | 85 | 1015.3 |
| 20260906040011 | 19 | 67 | 1.6 | 3.2 | 0.00 | 2.13 | 0.00 | 85 | 1015.3 |
| 20260906035505 | 20 | 65 | 1.6 | 3.2 | 0.00 | 2.13 | 2.13 | 84 | 1015.4 |
| 20260906035004 | 20 | 66 | 1.6 | 6.4 | 0.00 | 2.13 | 2.13 | 84 | 1015.4 |
| 20260906034517 | 20 | 66 | 3.2 | 6.4 | 0.00 | 2.13 | 2.13 | 84 | 1015.4 |
| 20260906034007 | 20 | 67 | 3.2 | 6.4 | 0.00 | 2.13 | 2.13 | 84 | 1015.4 |
| 20260906033509 | 20 | 72 | 4.8 | 6.4 | 0.00 | 2.13 | 2.13 | 83 | 1015.3 |
| 20260906033036 | 20 | 63 | 3.2 | 6.4 | 0.00 | 2.13 | 2.13 | 86 | 1015.3 |
| 20260906032511 | 20 | 57 | 3.2 | 6.4 | 0.00 | 2.13 | 2.13 | 86 | 1015.3 |
| 20260906032013 | 20 | 61 | 4.8 | 6.4 | 0.00 | 2.13 | 2.13 | 87 | 1015.3 |
| 20260906031530 | 20 | 56 | 3.2 | 6.4 | 0.00 | 2.13 | 2.13 | 88 | 1015.4 |
| 20260906031017 | 21 | 62 | 3.2 | 6.4 | 0.00 | 2.13 | 2.13 | 89 | 1015.4 |
| 20260906030503 | 21 | 70 | 3.2 | 3.2 | 0.00 | 2.13 | 2.13 | 89 | 1015.5 |
| 20260906030012 | 21 | 65 | 1.6 | 6.4 | 0.00 | 2.13 | 2.13 | 89 | 1015.4 |
| 20260906025504 | 21 | 70 | 3.2 | 8.0 | 0.00 | 2.13 | 2.13 | 89 | 1015.4 |
| 20260906025004 | 21 | 55 | 4.8 | 8.0 | 0.00 | 2.13 | 2.13 | 89 | 1015.3 |
| 20260906024514 | 21 | 63 | 4.8 | 8.0 | 0.00 | 2.13 | 2.13 | 89 | 1015.3 |
| 20260906024009 | 21 | 63 | 4.8 | 9.7 | 0.00 | 2.13 | 2.13 | 89 | 1015.3 |
| 20260906023508 | 21 | 75 | 4.8 | 9.7 | 0.00 | 2.13 | 2.13 | 89 | 1015.3 |
| 20260906023017 | 21 | 73 | 3.2 | 8.0 | 0.00 | 2.13 | 2.13 | 89 | 1015.2 |
| 20260906022509 | 21 | 64 | 3.2 | 8.0 | 0.00 | 2.13 | 2.13 | 89 | 1015.2 |
| 20260906022012 | 21 | 58 | 4.8 | 9.7 | 0.00 | 2.13 | 2.13 | 89 | 1015.2 |
| 20260906021528 | 21 | 72 | 3.2 | 9.7 | 0.00 | 2.13 | 2.13 | 88 | 1015.2 |
| 20260906021014 | 21 | 77 | 3.2 | 14.5 | 0.00 | 2.13 | 2.13 | 88 | 1015.2 |
| 20260906020513 | 21 | 61 | 4.8 | 14.5 | 0.00 | 2.13 | 2.13 | 88 | 1015.2 |
| 20260906020030 | 22 | 59 | 6.4 | 11.3 | 0.00 | 2.13 | 2.13 | 88 | 1015.1 |
| 20260906015504 | 21 | 52 | 3.2 | 11.3 | 0.00 | 2.13 | 2.13 | 89 | 1015.1 |
| 20260906015004 | 21 | 54 | 4.8 | 12.9 | 0.00 | 2.13 | 2.13 | 89 | 1014.9 |
| 20260906014511 | 21 | 59 | 6.4 | 12.9 | 0.00 | 2.13 | 2.13 | 89 | 1014.9 |
| 20260906014005 | 22 | 63 | 4.8 | 14.5 | 0.00 | 2.13 | 2.13 | 89 | 1014.8 |
| 20260906013506 | 22 | 67 | 4.8 | 14.5 | 0.00 | 2.13 | 2.13 | 88 | 1014.7 |
| 20260906013014 | 22 | 70 | 4.8 | 14.5 | 0.00 | 2.13 | 2.13 | 88 | 1014.6 |
| 20260906012509 | 22 | 57 | 4.8 | 14.5 | 0.00 | 2.13 | 2.13 | 88 | 1014.6 |
| 20260906012012 | 22 | 74 | 6.4 | 12.9 | 0.00 | 2.13 | 2.13 | 88 | 1014.4 |
| 20260906011533 | 22 | 53 | 6.4 | 14.5 | 0.00 | 2.13 | 2.13 | 88 | 1014.3 |
| 20260906011015 | 22 | 55 | 3.2 | 14.5 | 0.00 | 2.13 | 2.13 | 88 | 1014.2 |
| 20260906010516 | 22 | 65 | 4.8 | 12.9 | 0.00 | 2.13 | 2.13 | 88 | 1014.1 |
| 20260906010032 | 22 | 59 | 6.4 | 14.5 | 0.00 | 2.13 | 2.13 | 88 | 1014.2 |
| 20260906005515 | 22 | 61 | 6.4 | 14.5 | 0.00 | 2.13 | 2.13 | 88 | 1014.2 |
| 20260906005015 | 22 | 40 | 3.2 | 16.1 | 0.00 | 2.13 | 2.13 | 88 | 1014.2 |
| 20260906004509 | 23 | 55 | 6.4 | 16.1 | 0.00 | 2.13 | 2.13 | 88 | 1014.1 |
| 20260906004004 | 23 | 61 | 4.8 | 14.5 | 0.00 | 2.13 | 2.13 | 88 | 1014.0 |
| 20260906003506 | 23 | 63 | 1.6 | 14.5 | 0.00 | 2.13 | 2.13 | 88 | 1013.9 |
| 20260906003013 | 23 | 73 | 4.8 | 9.7 | 0.00 | 2.13 | 2.13 | 88 | 1013.8 |
| 20260906002510 | 23 | 53 | 3.2 | 8.0 | 0.00 | 2.13 | 2.13 | 88 | 1013.7 |
| 20260906002008 | 23 | 61 | 3.2 | 6.4 | 0.00 | 2.13 | 2.13 | 87 | 1013.7 |
| 20260906001523 | 23 | 49 | 1.6 | 4.8 | 0.00 | 2.13 | 2.13 | 87 | 1013.8 |
| 20260906001011 | 23 | 66 | 3.2 | 4.8 | 0.00 | 2.13 | 2.13 | 87 | 1013.7 |
| 20260906000513 | 23 | 53 | 3.2 | 4.8 | 0.00 | 2.13 | 2.13 | 86 | 1013.7 |
| 20260906000030 | 23 | 55 | 1.6 | 4.8 | 0.00 | 2.13 | 2.13 | 85 | 1013.7 |
| 20260905235515 | 23 | 61 | 1.6 | 8.0 | 0.00 | 2.13 | 2.13 | 85 | 1013.6 |
| 20260905235020 | 23 | 59 | 3.2 | 8.0 | 0.00 | 2.13 | 2.13 | 85 | 1013.6 |
| 20260905234530 | 24 | 67 | 1.6 | 6.4 | 0.00 | 2.13 | 2.13 | 85 | 1013.6 |
| 20260905234016 | 24 | 59 | 3.2 | 9.7 | 0.00 | 2.13 | 2.13 | 85 | 1013.5 |
| 20260905233506 | 24 | 72 | 4.8 | 9.7 | 0.00 | 2.13 | 2.13 | 85 | 1013.6 |
| 20260905233009 | 24 | 60 | 3.2 | 9.7 | 0.00 | 2.13 | 2.13 | 85 | 1013.6 |
| 20260905232507 | 24 | 59 | 3.2 | 4.8 | 0.00 | 2.13 | 2.13 | 85 | 1013.7 |
| 20260905232006 | 25 | 60 | 1.6 | 4.8 | 0.00 | 2.13 | 2.13 | 84 | 1013.7 |
| 20260905231520 | 25 | 54 | 1.6 | 9.7 | 0.00 | 2.13 | 2.13 | 85 | 1013.8 |
| 20260905231010 | 25 | 59 | 3.2 | 9.7 | 0.00 | 2.13 | 2.13 | 84 | 1013.8 |
| 20260905230511 | 25 | 69 | 4.8 | 11.3 | 0.00 | 2.13 | 2.13 | 83 | 1013.8 |
| 20260905230028 | 25 | 30 | 3.2 | 11.3 | 0.00 | 2.13 | 2.13 | 82 | 1013.8 |
| 20260905225515 | 25 | 54 | 1.6 | 4.8 | 0.00 | 2.13 | 2.13 | 83 | 1013.7 |
| 20260905225018 | 26 | 45 | 1.6 | 3.2 | 0.00 | 2.13 | 2.13 | 83 | 1013.6 |
| 20260905224533 | 25 | 47 | 1.6 | 3.2 | 0.00 | 2.13 | 2.13 | 83 | 1013.5 |
| 20260905224019 | 25 | 53 | 1.6 | 6.4 | 0.00 | 2.13 | 2.13 | 83 | 1013.5 |
| 20260905223515 | 25 | 42 | 1.6 | 6.4 | 0.00 | 2.13 | 2.13 | 83 | 1013.4 |
| 20260905223035 | 25 | 49 | 1.6 | 4.8 | 0.00 | 2.13 | 2.13 | 84 | 1013.3 |
| 20260905222505 | 26 | 57 | 1.6 | 4.8 | 0.00 | 2.13 | 2.13 | 84 | 1013.3 |
| 20260905222008 | 26 | 62 | 1.6 | 4.8 | 0.00 | 2.13 | 2.13 | 83 | 1013.2 |
| 20260905221517 | 26 | 38 | 1.6 | 9.7 | 0.00 | 2.13 | 2.13 | 82 | 1013.1 |
| 20260905221009 | 26 | 49 | 3.2 | 9.7 | 0.00 | 2.13 | 2.13 | 81 | 1012.9 |
| 20260905220510 | 26 | 77 | 4.8 | 14.5 | 0.00 | 2.13 | 2.13 | 81 | 1012.8 |
| 20260905220024 | 26 | 59 | 1.6 | 14.5 | 0.00 | 2.13 | 2.13 | 82 | 1012.9 |
| 20260905215513 | 26 | 59 | 1.6 | 6.4 | 0.00 | 2.13 | 2.13 | 81 | 1012.9 |
| 20260905215012 | 26 | 61 | 1.6 | 4.8 | 0.00 | 2.13 | 2.13 | 80 | 1012.9 |
| 20260905214527 | 27 | 39 | 1.6 | 3.2 | 0.00 | 2.13 | 2.13 | 79 | 1012.9 |
| 20260905214014 | 27 | 40 | 1.6 | 3.2 | 0.00 | 2.13 | 2.13 | 80 | 1012.7 |
| 20260905213512 | 27 | 40 | 1.6 | 3.2 | 0.00 | 2.13 | 2.13 | 79 | 1012.7 |
| 20260905213030 | 27 | 34 | 1.6 | 1.6 | 0.00 | 2.13 | 2.13 | 79 | 1012.6 |
| 20260905212515 | 27 | 52 | 1.6 | 3.2 | 0.00 | 2.13 | 2.13 | 79 | 1012.6 |
| 20260905212017 | 27 | 34 | 1.6 | 3.2 | 0.00 | 2.13 | 2.13 | 78 | 1012.7 |
| 20260905211511 | 27 | 46 | 1.6 | 3.2 | 0.00 | 2.13 | 2.13 | 78 | 1012.6 |
| 20260905211007 | 27 | 32 | 1.6 | 4.8 | 0.00 | 2.13 | 2.13 | 77 | 1012.8 |
| 20260905210511 | 28 | 64 | 1.6 | 4.8 | 0.00 | 2.13 | 2.13 | 78 | 1012.8 |
| 20260905210019 | 28 | 64 | 1.6 | 9.7 | 0.00 | 2.13 | 2.13 | 78 | 1012.8 |
| 20260905205511 | 28 | 42 | 1.6 | 9.7 | 0.00 | 2.13 | 2.13 | 78 | 1012.9 |
| 20260905205012 | 27 | 10 | 0.0 | 3.2 | 0.00 | 2.13 | 2.13 | 79 | 1012.9 |
| 20260905204527 | 27 | 29 | 1.6 | 4.8 | 0.00 | 2.13 | 2.13 | 80 | 1013.0 |
| 20260905204015 | 27 | 53 | 1.6 | 4.8 | 0.00 | 2.13 | 2.13 | 80 | 1013.1 |
| 20260905203514 | 27 | 59 | 1.6 | 4.8 | 0.00 | 2.13 | 2.13 | 81 | 1013.2 |
| 20260905203006 | 27 | 50 | 1.6 | 1.6 | 0.00 | 2.13 | 2.13 | 80 | 1013.3 |
| 20260905202503 | 27 | 49 | 1.6 | 3.2 | 0.00 | 2.13 | 2.13 | 79 | 1013.3 |
| 20260905202004 | 27 | 56 | 0.0 | 3.2 | 0.00 | 2.13 | 2.13 | 81 | 1013.3 |
| 20260905201509 | 27 | 56 | 0.0 | 3.2 | 0.00 | 2.13 | 2.13 | 79 | 1013.3 |
| 20260905201010 | 27 | 56 | 0.0 | 3.2 | 0.00 | 2.13 | 2.13 | 79 | 1013.3 |
| 20260905200507 | 27 | 352 | 0.0 | 6.4 | 0.00 | 2.13 | 2.13 | 78 | 1013.2 |
| 20260905200021 | 28 | 352 | 0.0 | 8.0 | 0.00 | 2.13 | 2.13 | 75 | 1013.2 |
| 20260905195510 | 28 | 350 | 3.2 | 12.9 | 0.00 | 2.13 | 2.13 | 73 | 1013.3 |
| 20260905195015 | 28 | 339 | 3.2 | 12.9 | 0.00 | 2.13 | 2.13 | 74 | 1013.3 |
| 20260905194527 | 28 | 344 | 3.2 | 9.7 | 0.00 | 2.13 | 2.13 | 74 | 1013.4 |
| 20260905194013 | 28 | 351 | 0.0 | 9.7 | 0.00 | 2.13 | 2.13 | 74 | 1013.4 |
| 20260905193513 | 28 | 345 | 6.4 | 9.7 | 0.00 | 2.13 | 2.13 | 72 | 1013.4 |
| 20260905193029 | 28 | 306 | 0.0 | 8.0 | 0.00 | 2.13 | 2.13 | 71 | 1013.5 |
| 20260905192514 | 28 | 352 | 1.6 | 8.0 | 0.00 | 2.13 | 2.13 | 72 | 1013.6 |
| 20260905192004 | 29 | 65 | 1.6 | 6.4 | 0.00 | 2.13 | 2.13 | 74 | 1013.6 |
| 20260905191508 | 29 | 348 | 1.6 | 6.4 | 0.00 | 2.13 | 2.13 | 74 | 1013.6 |
| 20260905191006 | 28 | 297 | 3.2 | 8.0 | 0.00 | 2.13 | 2.13 | 71 | 1013.6 |
| 20260905190508 | 28 | 301 | 1.6 | 8.0 | 0.00 | 2.13 | 2.13 | 71 | 1013.7 |
| 20260905190013 | 28 | 326 | 3.2 | 9.7 | 0.00 | 2.13 | 2.13 | 72 | 1013.8 |
| 20260905185509 | 28 | 257 | 4.8 | 9.7 | 0.00 | 2.13 | 2.13 | 72 | 1013.9 |
| 20260905185010 | 28 | 10 | 1.6 | 9.7 | 0.00 | 2.13 | 2.13 | 73 | 1013.9 |
| 20260905184523 | 28 | 324 | 3.2 | 8.0 | 0.00 | 2.13 | 2.13 | 71 | 1014.0 |
| 20260905184012 | 28 | 238 | 3.2 | 8.0 | 0.00 | 2.13 | 2.13 | 73 | 1014.0 |
| 20260905183513 | 28 | 273 | 1.6 | 9.7 | 0.00 | 2.13 | 2.13 | 74 | 1014.0 |
| 20260905183032 | 28 | 284 | 3.2 | 12.9 | 0.00 | 2.13 | 2.13 | 73 | 1014.0 |
| 20260905182515 | 28 | 234 | 4.8 | 12.9 | 0.00 | 2.13 | 2.13 | 72 | 1014.1 |
| 20260905182014 | 28 | 277 | 3.2 | 11.3 | 0.00 | 2.13 | 2.13 | 75 | 1014.1 |